CTN52R LDSP-LFPG

Flight info

Callsign CTN52R
Flight time 1h 53m
Altitude 38000
Route ZDA DCT BAXON DCT PUNSA DCT UNKIR DCT GIVRI DCT TINIL
Aircraft A319/M-SDE3FGHIRWY/LB1

Departure

Time 2026-05-05 15:14
Airport Split Saint Jerome Airport (LDSP)

Arrival

Time 2026-05-05 17:08
Airport Charles de Gaulle International Airport (LFPG)
Time Latitude Longitude Altitude Speed Heading
2026-05-05 14:54 43.53691 16.29812 68 ft 0 kts 113°
2026-05-05 15:09 43.53690 16.29815 68 ft 1 kts 108°
2026-05-05 15:09 43.53700 16.29827 68 ft 3 kts 26°
2026-05-05 15:09 43.53720 16.29805 61 ft 6 kts 295°
2026-05-05 15:09 43.53723 16.29736 68 ft 9 kts 250°
2026-05-05 15:10 43.53685 16.29659 67 ft 9 kts 248°
2026-05-05 15:10 43.53687 16.29597 72 ft 5 kts 276°
2026-05-05 15:10 43.53690 16.29555 65 ft 4 kts 276°
2026-05-05 15:10 43.53692 16.29537 72 ft 0 kts 280°
2026-05-05 15:11 43.53694 16.29528 73 ft 1 kts 280°
2026-05-05 15:11 43.53692 16.29474 82 ft 13 kts 257°
2026-05-05 15:11 43.53639 16.29334 82 ft 18 kts 232°
2026-05-05 15:11 43.53556 16.29188 86 ft 20 kts 232°
2026-05-05 15:12 43.53463 16.29018 86 ft 24 kts 233°
2026-05-05 15:12 43.53358 16.28828 87 ft 24 kts 232°
2026-05-05 15:12 43.53273 16.28677 87 ft 13 kts 232°
2026-05-05 15:12 43.53199 16.28603 86 ft 10 kts 231°
2026-05-05 15:13 43.53232 16.28601 86 ft 10 kts 59°
2026-05-05 15:13 43.53269 16.28668 87 ft 9 kts 51°
2026-05-05 15:13 43.53354 16.28823 87 ft 52 kts 53°
2026-05-05 15:13 43.53740 16.29517 81 ft 127 kts 53°
2026-05-05 15:14 43.54357 16.30674 300 ft 165 kts 57°
2026-05-05 15:14 43.55084 16.32068 652 ft 196 kts 60°
2026-05-05 15:14 43.55557 16.33845 1481 ft 193 kts 88°
2026-05-05 15:14 43.55284 16.35548 2682 ft 181 kts 123°
2026-05-05 15:15 43.54345 16.36672 3537 ft 183 kts 159°
2026-05-05 15:15 43.53083 16.36988 4191 ft 185 kts 171°
2026-05-05 15:15 43.51841 16.37487 4956 ft 194 kts 163°
2026-05-05 15:15 43.50422 16.37642 5406 ft 220 kts 190°
2026-05-05 15:16 43.49024 16.36543 5900 ft 252 kts 226°
2026-05-05 15:16 43.48336 16.34232 6665 ft 276 kts 264°
2026-05-05 15:16 43.48660 16.31636 7838 ft 277 kts 287°
2026-05-05 15:16 43.49451 16.29214 9022 ft 277 kts 295°
2026-05-05 15:17 43.50389 16.26892 10097 ft 279 kts 298°
2026-05-05 15:17 43.51382 16.24494 10620 ft 300 kts 298°
2026-05-05 15:17 43.52413 16.21896 11166 ft 315 kts 296°
2026-05-05 15:17 43.53425 16.19203 12009 ft 318 kts 295°
2026-05-05 15:18 43.54413 16.16442 12814 ft 323 kts 294°
2026-05-05 15:18 43.55379 16.13635 13764 ft 325 kts 293°
2026-05-05 15:18 43.56337 16.10794 14555 ft 329 kts 293°
2026-05-05 15:18 43.57303 16.07914 15291 ft 333 kts 292°
2026-05-05 15:19 43.58279 16.05000 16019 ft 337 kts 293°
2026-05-05 15:19 43.59269 16.02044 16719 ft 342 kts 292°
2026-05-05 15:19 43.60271 15.99055 17440 ft 345 kts 293°
2026-05-05 15:19 43.61289 15.96028 18139 ft 350 kts 293°
2026-05-05 15:20 43.62322 15.92962 18801 ft 354 kts 293°
2026-05-05 15:20 43.63364 15.89872 19441 ft 357 kts 293°
2026-05-05 15:20 43.64412 15.86762 20083 ft 360 kts 293°
2026-05-05 15:20 43.65470 15.83619 20741 ft 362 kts 293°
2026-05-05 15:21 43.66533 15.80449 21388 ft 365 kts 293°
2026-05-05 15:21 43.67604 15.77248 22023 ft 368 kts 293°
2026-05-05 15:21 43.68683 15.74023 22660 ft 371 kts 293°
2026-05-05 15:21 43.69771 15.70769 23295 ft 375 kts 293°
2026-05-05 15:22 43.70852 15.67530 23863 ft 378 kts 293°
2026-05-05 15:22 43.71955 15.64221 24385 ft 380 kts 293°
2026-05-05 15:22 43.73064 15.60897 24921 ft 381 kts 293°
2026-05-05 15:22 43.74176 15.57559 25441 ft 383 kts 293°
2026-05-05 15:23 43.75289 15.54210 25938 ft 385 kts 293°
2026-05-05 15:23 43.76407 15.50836 26422 ft 387 kts 293°
2026-05-05 15:23 43.77533 15.47436 26889 ft 389 kts 293°
2026-05-05 15:23 43.78663 15.44027 27361 ft 392 kts 293°
2026-05-05 15:24 43.79799 15.40588 27825 ft 394 kts 293°
2026-05-05 15:24 43.80940 15.37129 28300 ft 396 kts 292°
2026-05-05 15:24 43.82089 15.33640 28757 ft 399 kts 292°
2026-05-05 15:24 43.83244 15.30134 29210 ft 401 kts 292°
2026-05-05 15:25 43.84400 15.26615 29666 ft 403 kts 292°
2026-05-05 15:25 43.85564 15.23067 30119 ft 406 kts 292°
2026-05-05 15:25 43.86732 15.19497 30472 ft 408 kts 292°
2026-05-05 15:25 43.87908 15.15907 30856 ft 410 kts 292°
2026-05-05 15:26 43.89085 15.12305 31241 ft 412 kts 292°
2026-05-05 15:26 43.90268 15.08677 31581 ft 414 kts 292°
2026-05-05 15:26 43.91456 15.05030 31931 ft 415 kts 292°
2026-05-05 15:26 43.92643 15.01388 32412 ft 413 kts 292°
2026-05-05 15:27 43.93825 14.97762 32899 ft 412 kts 292°
2026-05-05 15:27 43.94998 14.94149 33409 ft 410 kts 292°
2026-05-05 15:27 43.96165 14.90549 33918 ft 408 kts 291°
2026-05-05 15:27 43.97329 14.86960 34365 ft 406 kts 291°
2026-05-05 15:28 43.98486 14.83386 34791 ft 405 kts 291°
2026-05-05 15:28 43.99642 14.79820 35170 ft 405 kts 291°
2026-05-05 15:28 44.00795 14.76259 35539 ft 404 kts 291°
2026-05-05 15:28 44.01941 14.72707 35897 ft 404 kts 291°
2026-05-05 15:29 44.03088 14.69145 36251 ft 403 kts 291°
2026-05-05 15:29 44.04228 14.65589 36595 ft 403 kts 291°
2026-05-05 15:29 44.05363 14.62035 36945 ft 402 kts 291°
2026-05-05 15:29 44.06498 14.58481 37243 ft 403 kts 291°
2026-05-05 15:30 44.07637 14.54918 37512 ft 403 kts 291°
2026-05-05 15:30 44.08777 14.51352 37815 ft 403 kts 291°
2026-05-05 15:30 44.09917 14.47778 38002 ft 404 kts 291°
2026-05-05 15:31 44.12179 14.40668 38018 ft 401 kts 291°
2026-05-05 15:31 44.14438 14.33564 38013 ft 401 kts 291°
2026-05-05 15:32 44.16688 14.26467 38015 ft 401 kts 291°
2026-05-05 15:32 44.18914 14.19409 38010 ft 399 kts 291°
2026-05-05 15:33 44.21143 14.12327 38011 ft 399 kts 290°
2026-05-05 15:33 44.23386 14.05196 38012 ft 399 kts 291°
2026-05-05 15:34 44.25758 13.98235 38009 ft 400 kts 294°
2026-05-05 15:34 44.28313 13.91334 38022 ft 401 kts 294°
2026-05-05 15:35 44.30864 13.84420 38019 ft 400 kts 293°
2026-05-05 15:35 44.33369 13.77470 38016 ft 400 kts 293°
2026-05-05 15:36 44.35845 13.70512 38008 ft 400 kts 293°
2026-05-05 15:36 44.38324 13.63541 38009 ft 401 kts 293°
2026-05-05 15:37 44.40811 13.56557 38000 ft 402 kts 293°
2026-05-05 15:37 44.43301 13.49559 37997 ft 402 kts 293°
2026-05-05 15:38 44.45792 13.42549 37989 ft 402 kts 293°
2026-05-05 15:38 44.48277 13.35522 37990 ft 402 kts 292°
2026-05-05 15:39 44.50748 13.28501 37986 ft 402 kts 292°
2026-05-05 15:39 44.53222 13.21462 37987 ft 402 kts 292°
2026-05-05 15:40 44.55689 13.14420 37974 ft 403 kts 292°
2026-05-05 15:40 44.58158 13.07369 37971 ft 403 kts 292°
2026-05-05 15:41 44.60624 13.00312 37967 ft 403 kts 292°
2026-05-05 15:41 44.63081 12.93246 37966 ft 403 kts 292°
2026-05-05 15:42 44.65533 12.86175 37990 ft 403 kts 292°
2026-05-05 15:42 44.67569 12.80297 37983 ft 403 kts 292°
2026-05-05 15:43 44.70020 12.73206 37983 ft 404 kts 292°
2026-05-05 15:43 44.72470 12.66102 37987 ft 404 kts 292°
2026-05-05 15:44 44.74914 12.58984 38003 ft 404 kts 292°
2026-05-05 15:44 44.77356 12.51861 38010 ft 404 kts 292°
2026-05-05 15:45 44.79792 12.44732 38007 ft 404 kts 291°
2026-05-05 15:45 44.82219 12.37609 38012 ft 403 kts 291°
2026-05-05 15:46 44.84641 12.30483 37998 ft 403 kts 291°
2026-05-05 15:46 44.87054 12.23360 38016 ft 403 kts 291°
2026-05-05 15:47 44.89470 12.16231 38013 ft 403 kts 291°
2026-05-05 15:47 44.91883 12.09089 37996 ft 403 kts 291°
2026-05-05 15:48 44.94287 12.01931 37997 ft 403 kts 291°
2026-05-05 15:48 44.96687 11.94766 37993 ft 404 kts 291°
2026-05-05 15:49 44.99091 11.87587 37997 ft 405 kts 291°
2026-05-05 15:49 45.01490 11.80402 37989 ft 405 kts 291°
2026-05-05 15:50 45.03887 11.73189 37987 ft 405 kts 291°
2026-05-05 15:50 45.06283 11.65968 37993 ft 405 kts 291°
2026-05-05 15:51 45.08657 11.58793 37996 ft 406 kts 291°
2026-05-05 15:51 45.11042 11.51559 38008 ft 406 kts 291°
2026-05-05 15:52 45.13421 11.44303 38003 ft 407 kts 291°
2026-05-05 15:52 45.15811 11.37034 38001 ft 407 kts 291°
2026-05-05 15:53 45.18198 11.29752 38002 ft 407 kts 291°
2026-05-05 15:53 45.20579 11.22457 37986 ft 407 kts 290°
2026-05-05 15:54 45.22954 11.15164 37995 ft 407 kts 290°
2026-05-05 15:54 45.25325 11.07861 37981 ft 408 kts 290°
2026-05-05 15:55 45.27692 11.00544 37973 ft 408 kts 290°
2026-05-05 15:55 45.30052 10.93227 37997 ft 408 kts 290°
2026-05-05 15:56 45.32417 10.85891 38020 ft 408 kts 290°
2026-05-05 15:56 45.34771 10.78547 38015 ft 408 kts 290°
2026-05-05 15:57 45.37116 10.71196 38011 ft 408 kts 290°
2026-05-05 15:57 45.39464 10.63842 38008 ft 408 kts 290°
2026-05-05 15:58 45.41810 10.56481 38008 ft 408 kts 290°
2026-05-05 15:58 45.44152 10.49107 38036 ft 409 kts 290°
2026-05-05 15:59 45.46494 10.41725 38028 ft 408 kts 290°
2026-05-05 15:59 45.48818 10.34354 38023 ft 408 kts 289°
2026-05-05 16:00 45.51133 10.26970 37992 ft 408 kts 289°
2026-05-05 16:00 45.53451 10.19583 37991 ft 408 kts 289°
2026-05-05 16:01 45.55750 10.12235 38011 ft 408 kts 289°
2026-05-05 16:01 45.58058 10.04824 38005 ft 409 kts 289°
2026-05-05 16:02 45.60369 9.97406 38014 ft 409 kts 289°
2026-05-05 16:02 45.62675 9.89992 38013 ft 409 kts 289°
2026-05-05 16:03 45.64973 9.82565 38008 ft 408 kts 289°
2026-05-05 16:03 45.67260 9.75130 38024 ft 409 kts 288°
2026-05-05 16:04 45.69540 9.67684 38009 ft 409 kts 288°
2026-05-05 16:04 45.71826 9.60229 38003 ft 409 kts 288°
2026-05-05 16:05 45.74108 9.52763 38006 ft 409 kts 288°
2026-05-05 16:05 45.76381 9.45285 38048 ft 410 kts 288°
2026-05-05 16:06 45.78656 9.37791 38030 ft 410 kts 288°
2026-05-05 16:06 45.80933 9.30291 38022 ft 410 kts 288°
2026-05-05 16:07 45.83203 9.22783 38016 ft 411 kts 288°
2026-05-05 16:07 45.85472 9.15263 38016 ft 411 kts 288°
2026-05-05 16:08 45.87737 9.07736 38040 ft 411 kts 288°
2026-05-05 16:08 45.89987 9.00205 38019 ft 410 kts 287°
2026-05-05 16:09 45.92230 8.92663 38018 ft 411 kts 287°
2026-05-05 16:09 45.94473 8.85114 38006 ft 411 kts 287°
2026-05-05 16:10 45.96712 8.77551 38009 ft 411 kts 287°
2026-05-05 16:10 45.98949 8.69994 38037 ft 411 kts 287°
2026-05-05 16:11 46.01182 8.62437 38021 ft 410 kts 287°
2026-05-05 16:12 46.05630 8.47297 38013 ft 411 kts 287°
2026-05-05 16:13 46.11151 8.28294 38002 ft 412 kts 287°
2026-05-05 16:13 46.13365 8.20662 37994 ft 413 kts 287°
2026-05-05 16:14 46.17793 8.05351 37972 ft 415 kts 287°
2026-05-05 16:15 46.22194 7.89965 37961 ft 415 kts 287°
2026-05-05 16:16 46.26593 7.74559 37938 ft 414 kts 287°
2026-05-05 16:17 46.29869 7.62960 37922 ft 417 kts 287°
2026-05-05 16:18 46.33160 7.51311 37915 ft 418 kts 287°
2026-05-05 16:18 46.36327 7.44156 37918 ft 428 kts 303°
2026-05-05 16:19 46.38145 7.40809 37914 ft 429 kts 303°
2026-05-05 16:19 46.43698 7.30647 37891 ft 430 kts 303°
2026-05-05 16:20 46.51096 7.17008 37898 ft 431 kts 303°
2026-05-05 16:22 46.60335 6.99841 37891 ft 431 kts 303°
2026-05-05 16:23 46.67711 6.86075 37891 ft 432 kts 303°
2026-05-05 16:23 46.73243 6.75692 37881 ft 433 kts 303°
2026-05-05 16:24 46.76936 6.68741 37882 ft 434 kts 303°
2026-05-05 16:25 46.82479 6.58282 37891 ft 435 kts 303°
2026-05-05 16:25 46.88030 6.47756 37906 ft 436 kts 303°
2026-05-05 16:26 46.95423 6.33703 37903 ft 436 kts 303°
2026-05-05 16:27 46.98493 6.27846 37898 ft 436 kts 303°
2026-05-05 16:27 47.02177 6.20791 37905 ft 436 kts 303°
2026-05-05 16:28 47.05855 6.13723 37898 ft 436 kts 303°
2026-05-05 16:28 47.09540 6.06626 37882 ft 438 kts 303°
2026-05-05 16:29 47.13227 5.99511 37886 ft 438 kts 303°
2026-05-05 16:29 47.16921 5.92378 37872 ft 439 kts 303°
2026-05-05 16:30 47.20609 5.85226 37877 ft 439 kts 303°
2026-05-05 16:30 47.24294 5.78058 37896 ft 439 kts 303°
2026-05-05 16:31 47.27989 5.70869 37789 ft 446 kts 303°
2026-05-05 16:31 47.29884 5.67169 37521 ft 458 kts 303°
2026-05-05 16:31 47.31810 5.63402 37251 ft 461 kts 303°
2026-05-05 16:32 47.33741 5.59623 36990 ft 461 kts 303°
2026-05-05 16:32 47.35662 5.55858 36723 ft 459 kts 303°
2026-05-05 16:32 47.37574 5.52100 36464 ft 457 kts 303°
2026-05-05 16:32 47.39478 5.48350 36209 ft 454 kts 303°
2026-05-05 16:33 47.41364 5.44632 35958 ft 452 kts 303°
2026-05-05 16:33 47.43218 5.40978 35680 ft 448 kts 303°
2026-05-05 16:33 47.45081 5.37304 35101 ft 446 kts 303°
2026-05-05 16:33 47.46931 5.33648 34557 ft 443 kts 303°
2026-05-05 16:34 47.48769 5.30011 34006 ft 440 kts 303°
2026-05-05 16:34 47.50595 5.26390 33395 ft 438 kts 303°
2026-05-05 16:34 47.52402 5.22801 32857 ft 433 kts 303°
2026-05-05 16:34 47.54194 5.19236 32322 ft 429 kts 303°
2026-05-05 16:35 47.55968 5.15701 31791 ft 426 kts 303°
2026-05-05 16:35 47.57728 5.12197 31304 ft 422 kts 305°
2026-05-05 16:35 47.59677 5.08952 30805 ft 421 kts 314°
2026-05-05 16:35 47.61884 5.06109 30332 ft 419 kts 318°
2026-05-05 16:36 47.64105 5.03332 29852 ft 416 kts 318°
2026-05-05 16:36 47.66311 5.00569 29329 ft 413 kts 318°
2026-05-05 16:36 47.68497 4.97831 28878 ft 409 kts 318°
2026-05-05 16:36 47.70653 4.95120 28432 ft 405 kts 319°
2026-05-05 16:37 47.72794 4.92421 27998 ft 402 kts 319°
2026-05-05 16:37 47.74916 4.89745 27584 ft 400 kts 318°
2026-05-05 16:37 47.77040 4.87060 27189 ft 401 kts 318°
2026-05-05 16:37 47.79155 4.84380 26777 ft 399 kts 318°
2026-05-05 16:38 47.81259 4.81711 26380 ft 396 kts 318°
2026-05-05 16:38 47.83350 4.79052 25981 ft 394 kts 318°
2026-05-05 16:38 47.85424 4.76412 25588 ft 391 kts 318°
2026-05-05 16:38 47.87480 4.73792 25195 ft 388 kts 318°
2026-05-05 16:39 47.89525 4.71186 24804 ft 385 kts 318°
2026-05-05 16:39 47.91552 4.68598 24420 ft 383 kts 318°
2026-05-05 16:39 47.93567 4.66023 24053 ft 380 kts 318°
2026-05-05 16:39 47.95568 4.63463 23658 ft 378 kts 318°
2026-05-05 16:40 47.97558 4.60921 23255 ft 376 kts 318°
2026-05-05 16:40 47.99534 4.58395 22853 ft 372 kts 318°
2026-05-05 16:40 48.01493 4.55881 22473 ft 371 kts 317°
2026-05-05 16:40 48.03440 4.53378 22112 ft 368 kts 317°
2026-05-05 16:41 48.05378 4.50886 21741 ft 366 kts 317°
2026-05-05 16:41 48.07298 4.48412 21368 ft 363 kts 317°
2026-05-05 16:41 48.09206 4.45951 21015 ft 361 kts 317°
2026-05-05 16:41 48.11102 4.43503 20652 ft 359 kts 317°
2026-05-05 16:42 48.12979 4.41079 20283 ft 356 kts 317°
2026-05-05 16:42 48.14847 4.38664 19932 ft 354 kts 317°
2026-05-05 16:42 48.16707 4.36258 19579 ft 353 kts 317°
2026-05-05 16:42 48.18558 4.33862 19219 ft 351 kts 317°
2026-05-05 16:43 48.20398 4.31478 18876 ft 349 kts 316°
2026-05-05 16:43 48.22229 4.29102 18530 ft 348 kts 316°
2026-05-05 16:43 48.24057 4.26728 18187 ft 347 kts 316°
2026-05-05 16:43 48.25873 4.24344 17795 ft 345 kts 313°
2026-05-05 16:44 48.27452 4.21682 17452 ft 339 kts 306°
2026-05-05 16:44 48.28941 4.18969 17116 ft 335 kts 306°
2026-05-05 16:44 48.30417 4.16280 16783 ft 333 kts 306°
2026-05-05 16:44 48.31883 4.13606 16453 ft 330 kts 306°
2026-05-05 16:45 48.33340 4.10950 16153 ft 327 kts 306°
2026-05-05 16:45 48.34775 4.08335 15956 ft 321 kts 306°
2026-05-05 16:45 48.36184 4.05765 15591 ft 317 kts 306°
2026-05-05 16:45 48.37577 4.03214 15214 ft 314 kts 306°
2026-05-05 16:46 48.38959 4.00682 14830 ft 312 kts 306°
2026-05-05 16:46 48.40333 3.98168 14496 ft 310 kts 306°
2026-05-05 16:46 48.41681 3.95699 14176 ft 308 kts 305°
2026-05-05 16:46 48.43041 3.93205 13937 ft 308 kts 305°
2026-05-05 16:47 48.44397 3.90715 13779 ft 307 kts 305°
2026-05-05 16:47 48.45747 3.88230 13508 ft 306 kts 305°
2026-05-05 16:47 48.47089 3.85757 13204 ft 304 kts 305°
2026-05-05 16:47 48.48425 3.83295 12930 ft 303 kts 305°
2026-05-05 16:48 48.49754 3.80843 12658 ft 301 kts 305°
2026-05-05 16:48 48.51076 3.78399 12378 ft 300 kts 305°
2026-05-05 16:48 48.52393 3.75966 12102 ft 299 kts 305°
2026-05-05 16:48 48.53702 3.73540 11832 ft 297 kts 304°
2026-05-05 16:49 48.54845 3.70979 11657 ft 294 kts 299°
2026-05-05 16:49 48.55958 3.68387 11512 ft 294 kts 299°
2026-05-05 16:49 48.57071 3.65801 11360 ft 293 kts 299°
2026-05-05 16:49 48.58182 3.63219 11206 ft 293 kts 299°
2026-05-05 16:50 48.59290 3.60641 11050 ft 292 kts 299°
2026-05-05 16:50 48.60395 3.58065 10904 ft 292 kts 300°
2026-05-05 16:50 48.61412 3.55415 10751 ft 290 kts 292°
2026-05-05 16:50 48.62227 3.52621 10608 ft 290 kts 291°
2026-05-05 16:51 48.63038 3.49833 10464 ft 289 kts 291°
2026-05-05 16:51 48.63848 3.47050 10333 ft 289 kts 291°
2026-05-05 16:51 48.64658 3.44266 10179 ft 290 kts 291°
2026-05-05 16:51 48.65467 3.41472 10025 ft 290 kts 291°
2026-05-05 16:52 48.66274 3.38678 9882 ft 290 kts 291°
2026-05-05 16:52 48.67078 3.35890 9738 ft 289 kts 291°
2026-05-05 16:52 48.67881 3.33103 9586 ft 289 kts 292°
2026-05-05 16:52 48.68684 3.30320 9435 ft 288 kts 292°
2026-05-05 16:53 48.69486 3.27540 9296 ft 288 kts 292°
2026-05-05 16:53 48.70285 3.24767 9157 ft 287 kts 292°
2026-05-05 16:53 48.71082 3.21997 9004 ft 286 kts 292°
2026-05-05 16:53 48.71872 3.19237 8876 ft 286 kts 292°
2026-05-05 16:54 48.72663 3.16476 8720 ft 285 kts 292°
2026-05-05 16:54 48.73451 3.13724 8578 ft 285 kts 292°
2026-05-05 16:54 48.74238 3.10978 8443 ft 284 kts 292°
2026-05-05 16:54 48.75023 3.08240 8293 ft 283 kts 292°
2026-05-05 16:55 48.75806 3.05498 8152 ft 283 kts 292°
2026-05-05 16:55 48.76585 3.02757 8022 ft 284 kts 293°
2026-05-05 16:55 48.77371 3.00000 7866 ft 286 kts 293°
2026-05-05 16:55 48.78153 2.97250 7738 ft 286 kts 293°
2026-05-05 16:56 48.78943 2.94472 7590 ft 286 kts 293°
2026-05-05 16:56 48.79735 2.91687 7446 ft 287 kts 293°
2026-05-05 16:56 48.80520 2.88926 7304 ft 284 kts 293°
2026-05-05 16:56 48.81302 2.86172 7159 ft 284 kts 293°
2026-05-05 16:57 48.82081 2.83418 7029 ft 283 kts 293°
2026-05-05 16:57 48.82853 2.80686 6886 ft 281 kts 293°
2026-05-05 16:57 48.83619 2.77968 6751 ft 280 kts 293°
2026-05-05 16:57 48.84385 2.75252 6612 ft 279 kts 293°
2026-05-05 16:58 48.85149 2.72540 6474 ft 279 kts 293°
2026-05-05 16:58 48.85898 2.69874 6339 ft 278 kts 293°
2026-05-05 16:58 48.86653 2.67171 6199 ft 278 kts 293°
2026-05-05 16:58 48.87418 2.64439 6053 ft 277 kts 293°
2026-05-05 16:59 48.88164 2.61780 5908 ft 277 kts 295°
2026-05-05 16:59 48.88913 2.59108 5779 ft 274 kts 295°
2026-05-05 16:59 48.89656 2.56452 5646 ft 273 kts 295°
2026-05-05 16:59 48.90385 2.53838 5499 ft 262 kts 295°
2026-05-05 17:00 48.91072 2.51365 5368 ft 247 kts 295°
2026-05-05 17:00 48.91729 2.49007 5181 ft 238 kts 295°
2026-05-05 17:00 48.92376 2.46688 5024 ft 237 kts 295°
2026-05-05 17:00 48.93016 2.44386 4667 ft 236 kts 296°
2026-05-05 17:01 48.93657 2.42082 4287 ft 237 kts 296°
2026-05-05 17:01 48.94294 2.39787 4023 ft 235 kts 296°
2026-05-05 17:01 48.94909 2.37565 3995 ft 220 kts 296°
2026-05-05 17:01 48.95475 2.35504 4001 ft 204 kts 296°
2026-05-05 17:02 48.96019 2.33537 4007 ft 201 kts 297°
2026-05-05 17:02 48.96560 2.31589 4031 ft 199 kts 297°
2026-05-05 17:02 48.97152 2.29712 3994 ft 195 kts 309°
2026-05-05 17:02 48.98197 2.28513 3997 ft 186 kts 342°
2026-05-05 17:03 48.99448 2.28319 3697 ft 181 kts 11°
2026-05-05 17:03 49.00533 2.29119 3428 ft 171 kts 40°
2026-05-05 17:03 49.01188 2.30588 3248 ft 169 kts 67°
2026-05-05 17:03 49.01367 2.32365 3046 ft 171 kts 82°
2026-05-05 17:04 49.01464 2.34159 2818 ft 166 kts 81°
2026-05-05 17:04 49.01559 2.35878 2593 ft 160 kts 82°
2026-05-05 17:04 49.01652 2.37553 2383 ft 157 kts 81°
2026-05-05 17:04 49.01744 2.39207 2174 ft 156 kts 81°
2026-05-05 17:05 49.01831 2.40798 1965 ft 144 kts 80°
2026-05-05 17:05 49.01908 2.42224 1784 ft 128 kts 78°
2026-05-05 17:05 49.01980 2.43536 1613 ft 122 kts 80°
2026-05-05 17:05 49.02051 2.44803 1453 ft 120 kts 80°
2026-05-05 17:06 49.02120 2.46056 1293 ft 118 kts 79°
2026-05-05 17:06 49.02189 2.47306 1115 ft 120 kts 79°
2026-05-05 17:06 49.02259 2.48594 915 ft 123 kts 81°
2026-05-05 17:06 49.02330 2.49895 761 ft 124 kts 82°
2026-05-05 17:07 49.02400 2.51210 578 ft 125 kts 79°
2026-05-05 17:07 49.02478 2.52521 404 ft 123 kts 81°
2026-05-05 17:07 49.02545 2.53737 359 ft 100 kts 85°
2026-05-05 17:07 49.02585 2.54544 351 ft 52 kts 85°
2026-05-05 17:08 49.02610 2.54978 356 ft 37 kts 86°
2026-05-05 17:08 49.02559 2.55329 358 ft 28 kts 112°
2026-05-05 17:08 49.02505 2.55500 359 ft 8 kts 115°
2026-05-05 17:08 49.02502 2.55510 360 ft 0 kts 115°
2026-05-05 17:09 49.02501 2.55513 355 ft 1 kts 115°
2026-05-05 17:09 49.02498 2.55524 361 ft 2 kts 115°
2026-05-05 17:10 49.02492 2.55544 361 ft 3 kts 116°
2026-05-05 17:10 49.02477 2.55577 356 ft 4 kts 130°
2026-05-05 17:10 49.02446 2.55604 359 ft 6 kts 163°
2026-05-05 17:10 49.02399 2.55613 355 ft 8 kts 176°
2026-05-05 17:11 49.02340 2.55621 355 ft 9 kts 173°
2026-05-05 17:11 49.02271 2.55631 354 ft 11 kts 176°
2026-05-05 17:11 49.02190 2.55640 363 ft 12 kts 175°
2026-05-05 17:11 49.02109 2.55649 355 ft 12 kts 175°
2026-05-05 17:12 49.02051 2.55656 358 ft 13 kts 175°
2026-05-05 17:12 49.01959 2.55669 355 ft 10 kts 174°
2026-05-05 17:12 49.01895 2.55625 355 ft 11 kts 241°
2026-05-05 17:12 49.01883 2.55499 355 ft 13 kts 264°
2026-05-05 17:13 49.01875 2.55356 355 ft 14 kts 265°
2026-05-05 17:13 49.01868 2.55196 357 ft 16 kts 266°
2026-05-05 17:13 49.01858 2.55021 358 ft 17 kts 264°
2026-05-05 17:13 49.01847 2.54832 355 ft 19 kts 265°
2026-05-05 17:14 49.01836 2.54627 355 ft 20 kts 265°
2026-05-05 17:14 49.01826 2.54433 355 ft 17 kts 265°
2026-05-05 17:14 49.01817 2.54262 359 ft 16 kts 265°
2026-05-05 17:14 49.01805 2.54091 355 ft 15 kts 256°
2026-05-05 17:15 49.01755 2.54000 360 ft 6 kts 210°
2026-05-05 17:15 49.01716 2.54009 355 ft 7 kts 148°
2026-05-05 17:15 49.01681 2.54045 357 ft 3 kts 146°
2026-05-05 17:15 49.01678 2.54049 357 ft 0 kts 147°